Location: Dallas
(32.7833°N, 96.8000°W)
Time: 11:29:35
(UTC-06:00)

Envisat - Pass Details

Date: 28 October 2019
Orbit: 764 x 766 km, 98.1° (Epoch: 17 November)

Event Time Altitude Azimuth Distance (km) Brightness Sun altitude
Rises 20:49:59 0° 209° (SSW) 3,217 6.6 -27.8°
Reaches altitude 10° 20:53:16 10° 232° (SW) 2,296 6.0 -28.5°
Maximum altitude 20:56:08 15° 267° (W) 1,962 5.9 -29.1°
Drops below altitude 10° 20:59:02 10° 302° (WNW) 2,304 6.2 -29.8°
Sets 21:02:21 0° 325° (NW) 3,234 6.7 -30.4°
